Regional Weather Roundup
Issued by NWS

Home | Current Version | Previous Version | Graphics & Text | Print | Product List | Glossary On
Versions: 1 2 3 4 5 6 7 8 9 10 11 12 13 14 15 16 17 18 19 20 21 22 23 24 25 26 27 28 29 30 31 32 33 34 35 36 37 38 39 40 41 42 43 44 45 46 47 48 49 50
000
ASUS43 KMKX 280521
RWRWI

WISCONSIN REGIONAL WEATHER ROUNDUP
NATIONAL WEATHER SERVICE MILWAUKEE/SULLIVAN WI
1200 AM CDT SAT MAR 28 2015

NOTE: "FAIR" INDICATES FEW OR NO CLOUDS BELOW 12,000 FEET WITH NO
SIGNIFICANT WEATHER AND/OR OBSTRUCTIONS TO VISIBILITY.

WIZ001-002-006>008-014>016-023>028-280600-
NORTHWEST WISCONSIN

CITY           SKY/WX    TMP DP  RH WIND       PRES   REMARKS
SUPERIOR ARPT  CLEAR     22  18  81 CALM      30.21S
ASHLAND        CLEAR     14  10  84 W3        30.21R
HAYWARD        CLEAR     22   5  48 CALM      30.18R
SIREN          PTCLDY    23  11  60 CALM      30.18R
CUMBERLAND     PTCLDY    27  14  59 SW7       30.16S WCI  19
RICE LAKE      PTCLDY    25  15  67 CALM      30.19R
CHETEK         PTCLDY    22  13  70 CALM      30.19R
LADYSMITH      CLEAR     23  14  67 NE3       30.19R
EAU CLAIRE     PTCLDY    24  10  55 CALM      30.19R
MENOMONIE      MOCLDY    26  12  55 CALM      30.20S
NEW RICHMOND   CLOUDY    25  12  57 CALM      30.18F
OSCEOLA        PTCLDY    26  14  61 S3        30.21S
$$

WIZ003>005-009-010-017-018-280600-
NORTH CENTRAL WISCONSIN

CITY           SKY/WX    TMP DP  RH WIND       PRES   REMARKS
MANITOWISH WTR CLEAR     13   6  73 CALM      30.16R
ARBOR VITAE    CLEAR     17   7  65 CALM      30.15S
WOODRUFF       CLEAR     17   7  65 CALM      30.15S
RHINELANDER    CLEAR     11   1  64 N5        30.16R WCI   3
EAGLE RIVER    CLEAR      9   2  75 CALM      30.15S
LAND O LAKES   CLEAR      3   0  85 CALM      30.17R
PHILLIPS       PTCLDY    19   9  63 CALM      30.16R
TOMAHAWK       CLEAR     10   6  81 CALM      30.17R
MEDFORD        CLEAR     17  11  78 CALM      30.16R
MERRILL        CLEAR     13   9  81 CALM      30.17S
$$

WIZ029-030-035-036-043>047-280600-
CENTRAL WISCONSIN

CITY           SKY/WX    TMP DP  RH WIND       PRES   REMARKS
WAUSAU         CLEAR     20   9  62 CALM      30.16S
MOSINEE        CLEAR     21  10  63 CALM      30.18R
MARSHFIELD     CLEAR     20  12  71 W3        30.17R
STEVENS POINT  CLEAR     13   7  76 CALM      30.19R
WAUPACA        CLEAR     21  12  67 CALM      30.22R
WAUTOMA        CLEAR     16  10  77 CALM      30.22R
WISC RAPIDS    CLEAR     17   9  70 CALM      30.20R
CAMP DOUGLAS   CLEAR     16  14  93 CALM      30.20R
$$

WIZ011>013-019>022-031-037>040-048>050-280600-
NORTHEAST WISCONSIN

CITY           SKY/WX    TMP DP  RH WIND       PRES   REMARKS
ANTIGO         CLEAR     17   6  62 SE5       30.17R WCI  10
SHAWANO        CLEAR     19  11  72 CALM      30.23S
OCONTO         CLEAR     19   4  51 CALM      30.25R
STURGEON BAY   CLEAR     16   5  62 N6        30.25S WCI   7
GREEN BAY      CLEAR     21  13  71 E3        30.23S
MANITOWOC      CLEAR     18  15  88 CALM      30.24R
APPLETON       FAIR      21  10  63 E3        30.22R
CLINTONVILLE   CLEAR     19  12  73 E3        30.22S
OSHKOSH        CLEAR     19  12  74 S3        30.22R
$$

WIZ032>034-041-042-053>061-280600-
SOUTHWEST WISCONSIN

CITY           SKY/WX    TMP DP  RH WIND       PRES   REMARKS
LA CROSSE      CLEAR     24  14  65 E3        30.21R
SPARTA         CLEAR     16   9  75 CALM      30.22R
VIROQUA        CLEAR     23  12  63 CALM      30.18S
BOSCOBEL       CLEAR     20  13  74 CALM      30.22R
PRAIRIE DU CHI CLEAR     20  13  72 CALM      30.21S
PLATTEVILLE    CLEAR     25  13  61 NW5       30.19S WCI  19
$$

WIZ056-057-062-063-064-067-068-280600-
SOUTH CENTRAL WISCONSIN

CITY           SKY/WX    TMP DP  RH WIND       PRES   REMARKS
REEDSBURG      CLEAR     21  10  63 CALM      30.20R
BARABOO/DELLS  CLEAR     22   8  56 SE5       30.20R WCI  15
LONE ROCK      CLEAR     22  14  71 CALM      30.21R
MINERAL POINT  CLEAR     23  10  58 W3        30.18R
MADISON        CLEAR     23   6  48 S3        30.21R
MIDDLETON      CLEAR     24  11  57 CALM      30.21S
WATERTOWN      CLEAR     20  13  75 CALM      30.22R
MONROE         CLEAR     25  10  54 E5        30.20R WCI  19
JANESVILLE     CLEAR     23  16  74 CALM      30.22R
$$

WIZ051-052-058>065-066-070>072-280600-
SOUTHEAST WISCONSIN

CITY           SKY/WX    TMP DP  RH WIND       PRES   REMARKS
MILWAUKEE      CLEAR     24  11  57 NE6       30.22S WCI  17
WAUKESHA       CLEAR     18  12  79 CALM      30.22R
MILWAUKEE/TIMM CLEAR     19  12  73 CALM      30.23S
RACINE         CLEAR     24  12  60 NE7       30.23S WCI  16
BURLINGTON     CLEAR     15  11  87 CALM      30.22R
KENOSHA        CLEAR     17  12  80 NW3       30.22S
FOND DU LAC    FAIR      18  11  74 SW3       30.22R
SHEBOYGAN      CLEAR     17  12  80 CALM      30.22S
WEST BEND      CLEAR     18  12  79 CALM      30.22R
JUNEAU         CLEAR     19  12  73 S3        30.23R
$$

LSZ147-162-280600-
LAKE SUPERIOR

STATION/POSITION TIME  TEMP    WIND        PRES    WAVE
                       AIR SEA DIR/SP/G            HT/PER
                 (UTC) (F)     (DEG/KT/KT) (MB)    (FT/S)
DEVILS ISLAND    0500   24      80/  2/  3 1024.6R
PORT WING        0440   18     180/  4/  5 1023.0R
$$

LMZ867-665-643>646-280600-
LAKE MICHIGAN

STATION/POSITION TIME  TEMP    WIND        PRES    WAVE
                       AIR SEA DIR/SP/G            HT/PER
                 (UTC) (F)     (DEG/KT/KT) (MB)    (FT/S)
NORTHPORT PIER   0418   18      20/  7/ 11 1024.0S
SISTER BAY       0417   16        CALM       N/A
KEWAUNEE LAKESHO 0500   24      CALM  /  5 1022.8
SHEBOYGAN LAKESH 0500   25      30/  9/ 10 1024.9R
PORT WASHINGTON  0440   22     330/  3/  5 1024.0S
MILWAUKEE LAKESH 0500   26      20/  8/ 10   N/A
KENOSHA   LAKESH 0500   27      10/ 11/ 17 1023.4S
$$

TC  - TEMPERATURE IN CELSIUS
VSB - VISIBILITY IN STATUTE MILES
WCI - WIND CHILL INDEX
HX  - HEAT INDEX




USA.gov is the U.S. government's official web portal to all federal, state and local government web resources and services.